Powrót do katalogu

STARLINK-5377

AktywnyŁącznośćVLEO
NORAD 56141·PAYLOAD·🇺🇸 United States

Wystrzelony Mar 29, 2023 z Cape Canaveral Space Force Station

Loading…

Następne Przeloty (najbliższe 24 godziny)

TLE

ŚwieżeSource: CelesTrak SupGP

Epoka: Sep 14, 2026, 21:04 UTC

1 56141C 23046BA  26257.87826389 -.00039996  00000+0 -14487-2 0  2575
2 56141  43.0000 158.5223 0001294 245.0593 141.5198 15.27597192    14

Śledź STARLINK-5377 w czasie rzeczywistym z AllMySat

Download on the App Store